Location: Unspecified
(0.0000°N, 0.0000°E)
Time: 18:56:14
(UTC+00:00)

Explorer 11/Cluster Stage 4 - Pass Details

Date: 19 November 2019
Orbit: 467 x 1259 km, 28.8° (Epoch: 09 December)

Event Time Altitude Azimuth Distance (km) Brightness Sun altitude
Rises 14:21:09 0° 219° (SW) 2,491 9.8 47.2°
Reaches altitude 10° 14:23:36 10° 203° (SSW) 1,611 8.9 46.6°
Maximum altitude 14:26:31 23° 149° (SSE) 1,059 7.5 46.0°
Drops below altitude 10° 14:29:36 10° 95° (E) 1,702 8.1 45.3°
Sets 14:32:16 0° 80° (E) 2,676 8.9 44.7°
